sat.trackr.live / text

‹ back to catalog

STARLINK-1308

NORAD 45419 · 2020-019BM

PAYLOAD ACTIVE UNKNOWN

§ Identity

Operator
Country
US
Launch date
2020-03-18
Launch site
AFETR
Launch vehicle
Mass (kg)
RCS (m²)

Purposes: comms

External: N2YO · Heavens-Above · Gunter

§ Orbital elements

Epoch: 2026-09-19T18:43:19.337952Z

Period
91.32 min
Inclination
53.0407°
Eccentricity
0.0007209
Mean motion
15.76797477 rev/d
Perigee alt
334.7 km
Apogee alt
344.4 km
Semi-major
6,717.7 km
B*
3.9574e-4
RAAN
279.0651°
Arg perigee
24.4036°
Mean anomaly
335.7323°
Rev number
36,007

§ Raw data

STARLINK-13081 45419U 20019BM  26262.78008493  .00064907  00000+0  39574-3 0  99982 45419  53.0407 279.0651 0007209  24.4036 335.7323 15.76797477360073

JSON: /api/v1/satellites/45419 · /tle

For live sub-satellite position, see the globe view (requires WebGL).

§ Visibility from observer

Set your observer location to see the next 7 days of passes ≥ 10°. The values pass through the URL so the page stays shareable.

No JS? Fill the form by hand. The geolocation button needs JavaScript.